星链-34430 (STARLINK-34430)

导读 | 星芒AI

STARLINK-34430 是 SpaceX Starlink 卫星互联网项目中的一颗低轨卫星,属于第 11 批组网发射的“星链”卫星之一。该卫星于 2022 年 3 月 30 日由猎鹰 9 号火箭送入近地轨道,旨在为全球提供高速、低延迟的宽带互联网服务。它运行在约 550 公里的高度,采用先进推进系统和激光通信技术,支持全球范围内的网络连接,尤其服务于偏远地区。STARLINK-34430 是 SpaceX 打造全球卫星互联网基础设施的重要组成部分。

基本信息
目录编号:
64456
目录名称:
STARLINK-34430
国际标识:
2025-130U
轨道中心:
EARTH
卫星名称:
星链-34430
卫星全名:
星链-34430 (STARLINK-34430)
卫星状态:
在轨 (已飞行144 天)
发射日期:
2025-06-18 UTC
国别 :
美国 (US)
星等 :
--
轨道信息
数据来源 国际轨道数据
星历时间: 2025-11-08T13:58:30+0800
1天前
查看轨道信息
半长轴: 6853.284km
偏心率: 0.0001387
轨道倾角: 53.159°
近地点辐角 78.297°
升交点赤经 292.352°
平近点角 281.819°
近地点: 474.198km
远地点: 476.1km
周期: 94.104分钟
每日圈数: 15.302229
详细信息
固有亮度:
5
最大亮度:
2.5
卫星平台:
Starlink V1.0
覆盖范围:
全球
运营商:
太空探索技术公司
运营商所在国:
美国
制造商(研发单位):
太空探索技术公司
制造商所在国:
美国
使用方式:
暂无
卫星简介
Starlink 计划是 SpaceX 推出的全球卫星互联网项目,通过发射低轨道卫星,为全球尤其是偏远地区提供高速、低延迟的互联网服务。自 2019 年起,Starlink 已部署数千颗卫星,旨在缩小全球数字鸿沟,推动互联网普及。该项目还为军事、航空等行业提供通信支持,带来广泛经济效益。
2D轨道图
3D轨道图
轨道高度分析图
轨道倾角分析图
轨道综合分析图
查看轨道综合分析图